Regional Weather Roundup
Issued by NWS

Home | Current Version | Previous Version | Text Only | Print | Product List | Glossary On
Versions: 1 2 3 4 5 6 7 8 9 10 11 12 13 14 15 16 17 18 19 20 21 22 23 24 25 26 27 28 29 30 31 32 33 34 35 36 37 38 39 40 41 42 43 44 45 46 47 48 49 50
000
ASUS43 KDTX 030010
RWRMI
MICHIGAN HOURLY REGIONAL WEATHER ROUNDUP
NATIONAL WEATHER SERVICE DETROIT/PONTIAC MI
800 PM EDT SAT MAY 02 2015

NOTE: "FAIR" INDICATES FEW OR NO CLOUDS BELOW 12,000 FEET WITH NO
SIGNIFICANT WEATHER AND/OR OBSTRUCTION TO VISIBILITY.

MIZ047>049-052>055-059>063-066>070-074>076-081>083-030100-
SOUTHEAST LOWER MICHIGAN

CITY           SKY/WX    TMP DP  RH WIND       PRES   REMARKS
ADRIAN         CLEAR     71  35  26 W6        30.00S
6HR MIN TEMP:  71; 6HR MAX TEMP:  75;

ALMA           CLOUDY    70  32  24 W8        29.97S
ANN ARBOR      CLEAR     68  39  34 W6        29.99R
BAD AXE        PTCLDY    66  41  39 S5        29.96S
CARO           CLEAR     70  39  31 CALM      29.95S
DETROIT CITY   CLOUDY    70  40  33 S9        29.97S
6HR MIN TEMP:  70; 6HR MAX TEMP:  75;

DETROIT        PTCLDY    73  38  27 SW9       29.98S
6HR MIN TEMP:  72; 6HR MAX TEMP:  77;

FLINT          CLEAR     71  38  29 W9        29.97S
6HR MIN TEMP:  71; 6HR MAX TEMP:  76;

GROSSE ILE     CLEAR     59  46  63 S7        29.97S
HILLSDALE      CLEAR     70  35  27 SW5       30.01S
6HR MIN TEMP:  70; 6HR MAX TEMP:  74;

HOWELL         CLEAR     69  35  28 W6        29.98S
6HR MIN TEMP:  69; 6HR MAX TEMP:  74;


CITY           SKY/WX    TMP DP  RH WIND       PRES   REMARKS
JACKSON        CLEAR     69  37  30 W6        29.99S
6HR MIN TEMP:  69; 6HR MAX TEMP:  74;

LAMBERTVILLE   CLEAR     72  37  28 W3        30.00R
LANSING        CLOUDY    70  33  25 W10       29.99S
6HR MIN TEMP:  69; 6HR MAX TEMP:  75;

LAPEER         FAIR      69  34  27 NW5       29.98R
MASON          CLEAR     68  37  31 NW7       29.99R
MONROE         PTCLDY    66  45  45 SE5       29.98R
MT. CLEMENS    PTCLDY    64  47  53 S6        29.95S
6HR MIN TEMP:  64; 6HR MAX TEMP:  74;

PONTIAC        CLEAR     70  38  31 W8        29.97S
6HR MIN TEMP:  70; 6HR MAX TEMP:  74;

PORT HOPE        N/A     64  43  46 SE6       29.94S
6HR MIN TEMP:  53; 6HR MAX TEMP:  67;

PORT HURON     MOCLDY    70  43  37 SW5       29.97S
TRI CITIES     CLEAR     71  36  27 W12       29.96S
6HR MIN TEMP:  71; 6HR MAX TEMP:  76;

MIDLAND        FAIR      72  34  25 SW10      29.95R
TROY           CLEAR     74  36  25 CALM      29.99S
SAGINAW HB     CLEAR     72  34  25 SW12      29.96R
$$
MIZ043>046-050>051-056>058-064>065-071>073-077>080-030100-
SOUTHWEST LOWER MICHIGAN

CITY           SKY/WX    TMP DP  RH WIND       PRES   REMARKS
BATTLE CREEK   CLEAR     70  37  29 W10       30.00S
6HR MIN TEMP:  70; 6HR MAX TEMP:  74;

BENTON HARBOR  CLEAR     69  35  28 CALM      29.98F
6HR MIN TEMP:  68; 6HR MAX TEMP:  70;

BIG RAPIDS     PTCLDY    68  32  26 SW9       29.96S
6HR MIN TEMP:  68; 6HR MAX TEMP:  73;

COLDWATER      CLEAR     68  37  32 W6        29.99S
6HR MIN TEMP:  68; 6HR MAX TEMP:  72;

FREMONT        FAIR      67  30  25 S6        29.96F
HOLLAND        CLEAR     68  36  30 S5        29.98F
6HR MIN TEMP:  68; 6HR MAX TEMP:  71;

GRAND RAPIDS   PTCLDY    69  29  22 SW7       29.98F
6HR MIN TEMP:  69; 6HR MAX TEMP:  73;

IONIA          FAIR      68  33  26 W8        29.98S
KALAMAZOO      CLEAR     70  37  29 NW8       29.99F
LUDINGTON      CLEAR     68  34  28 S5        29.94S
6HR MIN TEMP:  66; 6HR MAX TEMP:  71;

MARSHALL       CLEAR     68  39  35 CALM      29.99R
MOUNT PLEASANT CLEAR     70  32  24 SW10      29.96S
6HR MIN TEMP:  70; 6HR MAX TEMP:  76;

MUSKEGON       PTCLDY    67  32  27 S9        29.97F
6HR MIN TEMP:  66; 6HR MAX TEMP:  70;

SOUTH HAVEN    CLEAR     72  27  19 SW3       29.98S
$$
MIZ016>042-030100-
NORTHERN LOWER MICHIGAN

CITY           SKY/WX    TMP DP  RH WIND       PRES   REMARKS
ALPENA         CLOUDY    61  41  47 E7        29.93R
6HR MIN TEMP:  61; 6HR MAX TEMP:  72;

BEAVER ISLAND  CLEAR     62  32  31 SW10G18   29.90S
6HR MIN TEMP:  62; 6HR MAX TEMP:  69;

BELLAIRE       PTCLDY    70  37  30 CALM      29.91F
6HR MIN TEMP:  70; 6HR MAX TEMP:  75;

CADILLAC       PTCLDY    67  37  32 SW8       29.95S
CHARLEVOIX     CLOUDY    69  40  35 S6        29.93S
6HR MIN TEMP:  67; 6HR MAX TEMP:  72;

FRANKFORT      CLEAR     68  28  22 S6        29.91F
GAYLORD        CLEAR     67  36  31 W8        29.93S
6HR MIN TEMP:  67; 6HR MAX TEMP:  73; 6HR PCP: TRACE;

GRAYLING       MOCLDY    69  34  27 SW9       29.94S
6HR MIN TEMP:  69; 6HR MAX TEMP:  75;

HARBOR SPRINGS CLEAR     63  40  42 CALM      29.91S
HOUGHTON LAKE  MOCLDY    68  38  33 W10       29.95R
6HR MIN TEMP:  67; 6HR MAX TEMP:  74;

MANISTEE       CLEAR     70  37  30 S5        29.93F
OSCODA         PTCLDY    64  39  39 S6        29.92S
PELLSTON       PTCLDY    70  37  29 SW7       29.91F
6HR MIN TEMP:  69; 6HR MAX TEMP:  74;

ROGERS CITY    PTCLDY    54  42  63 CALM      29.93S
TRAVERSE CITY  PTCLDY    72  39  30 SW5       29.91F
6HR MIN TEMP:  72; 6HR MAX TEMP:  76;

$$
MIZ007>008-015-030100-
EASTERN UPPER MICHIGAN

CITY           SKY/WX    TMP DP  RH WIND       PRES   REMARKS
KINROSS        CLEAR     63  37  39 S7        29.91S
6HR MIN TEMP:  61; 6HR MAX TEMP:  70;

MACKINAC ISLAN CLEAR     57  38  48 E5        29.92S
6HR MIN TEMP:  57; 6HR MAX TEMP:  65;

NEWBERRY       CLEAR     61  35  38 SW16G22   29.89S
6HR MIN TEMP:  61; 6HR MAX TEMP:  67;

S. S. MARIE    PTCLDY    66  39  37 SW9       29.90S
6HR MIN TEMP:  63; 6HR MAX TEMP:  71; 6HR PCP: TRACE;

MUNISING         N/A     69  39  33 S9        29.83S
6HR MIN TEMP:  47; 6HR MAX TEMP:  75;

$$
MIZ004>006-011>014-085-030100-
CENTRAL UPPER MICHIGAN

CITY           SKY/WX    TMP DP  RH WIND       PRES   REMARKS
MANISTIQUE     CLEAR     48  34  58 S8        29.88F
6HR MIN TEMP:  48; 6HR MAX TEMP:  53;

ESCANABA       MOCLDY    57  37  47 S12G18    29.83F
6HR MIN TEMP:  57; 6HR MAX TEMP:  64;

MENOMINEE      MOCLDY    66  43  42 S12       29.83S
6HR MIN TEMP:  66; 6HR MAX TEMP:  75;

SAWYER-GWINN   CLEAR     63  39  42 N6        29.85S
$$
MIZ001>003-009>011-084-030100-
WESTERN UPPER MICHIGAN

CITY           SKY/WX    TMP DP  RH WIND       PRES   REMARKS
IRON MOUNTAIN  PTCLDY    74  39  28 SW7       29.81F
6HR MIN TEMP:  72; 6HR MAX TEMP:  78;

HOUGHTON       CLEAR     57  40  52 E6        29.82F
6HR MIN TEMP:  57; 6HR MAX TEMP:  71;

COPPER HARBOR    N/A     59  40  49 SW8G18    29.81F
6HR MIN TEMP:  46; 6HR MAX TEMP:  64;

IRONWOOD       MOSUNNY   73  39  29 S8        29.75F
6HR MIN TEMP:  72; 6HR MAX TEMP:  75;

$$

ABBREVIATIONS USED IN REMARKS
   TC - TEMPERATURE IN CELSIUS
  WCI - WIND CHILL INDEX
   HX - HEAT INDEX
  VSB - VISIBILITY



USA.gov is the U.S. government's official web portal to all federal, state and local government web resources and services.